Flag for USA

Past Weather in Coeur d'Alene, Idaho, USA — Yesterday and Last 2 Weeks

Now
32 °F

Light snow. Mostly cloudy.


Feels Like: 22 °F
Forecast: 34 / 17 °F
Wind: 13 mph from North

Location: Coeur d'Alene Weather Reporting System
Current Time: Oct 23, 2020 at 9:23:39 pm
Latest Report: Oct 23, 2020 at 8:56 pm
Visibility: 8 mi
Pressure29.96 "Hg(27.61 "Hg at 655m altitude)
Humidity: 96%
Dew Point: 31 °F
Location of Coeur d'AleneLocation

Past Weather in Coeur d'Alene — Graph

°F

Coeur d'Alene Temperature Yesterday

Maximum temperature yesterday: 42 °F (at 2:56 pm)
Minimum temperature yesterday: 24 °F (at 11:56 pm)
Average temperature yesterday: 33 °F

High & Low Weather Summary for the Past Weeks

 TemperatureHumidityPressure
High73 °F (Oct 9, 2:56 pm)100% (Oct 10, 12:24 pm)30.63 "Hg (Oct 10, 12:24 pm)
Low22 °F (Oct 23, 5:56 am)33% (Oct 9, 2:56 pm)29.59 "Hg (Oct 10, 12:24 pm)
Average45 °F76%30.08 "Hg
* Reported Oct 8 7:56 pm — Oct 23 7:56 pm, Coeur d'Alene. Weather by CustomWeather, © 2020

Note: Actual official high and low records may vary slightly from our data, if they occured in-between our weather recording intervals... More about our weather records

Coeur d'Alene Weather History for the Previous 24 Hours

Scroll right to see more
 ConditionsComfort  
Time TempWeatherWind HumidityBarometerVisibility
7:56 pm
Fri, Oct 23
32 °FLight snow. Ice fog.9 mph96%29.97 "Hg5 mi
7:37 pm32 °FLight snow. Ice fog.10 mph93%29.85 "Hg6 mi
7:04 pm32 °FLight snow. Ice fog.9 mph93%29.85 "Hg3 mi
7:00 pm32 °FLight snow. Ice fog.9 mph93%29.85 "Hg2 mi
6:20 pm32 °FHeavy snow. Fog.7 mph93%29.86 "Hg0 mi
5:56 pm32 °FHeavy snow. Fog.3 mph92%29.99 "Hg0 mi
4:56 pm32 °FHeavy snow. Fog.7 mph92%30.01 "Hg0 mi
3:56 pm32 °FSnow. Fog.No wind96%30.05 "Hg0 mi
2:56 pm32 °FHeavy snow. Fog.5 mph92%30.09 "Hg0 mi
1:56 pm31 °FHeavy snow. Ice fog.5 mph96%30.11 "Hg0 mi
12:56 pm31 °FHeavy snow. Ice fog.7 mph92%30.16 "Hg0 mi
11:56 am31 °FLight snow. Ice fog.9 mph92%30.21 "Hg1 mi
11:11 am30 °FSnow. Ice fog.6 mph93%30.10 "Hg1 mi
10:43 am30 °FLight snow. Ice fog.3 mph93%30.12 "Hg2 mi
10:35 am30 °FLight snow. Ice fog.7 mph93%30.12 "Hg5 mi
9:56 am29 °FMore clouds than sun.No wind96%30.26 "Hg10 mi
8:56 am28 °FPartly sunny.6 mph93%30.30 "Hg9 mi
7:56 am25 °FPassing clouds.5 mph92%30.32 "Hg8 mi
6:56 am23 °FPassing clouds.3 mph92%30.33 "Hg10 mi
5:56 am22 °FPassing clouds.No wind89%30.36 "Hg10 mi
5:33 am23 °FPassing clouds.No wind93%30.25 "Hg10 mi
4:56 am23 °FPassing clouds.5 mph92%30.40 "Hg10 mi
3:56 am23 °FPassing clouds.5 mph92%30.42 "Hg10 mi
3:24 am25 °FPassing clouds.3 mph86%30.31 "Hg10 mi
2:56 am24 °FPassing clouds.No wind91%30.44 "Hg10 mi
2:25 am25 °FPassing clouds.6 mph86%30.33 "Hg10 mi
1:56 am24 °FClear.3 mph91%30.45 "Hg10 mi
12:56 am24 °FClear.6 mph88%30.46 "Hg10 mi
11:56 pm
Thu, Oct 22
24 °FClear.3 mph91%30.47 "Hg10 mi
10:56 pm25 °FClear.5 mph88%30.47 "Hg9 mi
9:56 pm29 °FClear.5 mph89%30.47 "Hg10 mi
Weather by CustomWeather, © 2020

See weather overview